Probability
0 0 0 0 0 0 0 0 0 0 0 0 0 0 0 0 0 0 0 0 0 0 0 0 1 0 0 0 1 0 0 0 0 0 0 0 0 0 0 0 0 0 0
0 0 0 0 0 0 0 0 0 0 0 0 0 0 0 0 0 0 0 0 0 0 0 0 1 0 0 0 1 0 0 0 0 0 0 0 0 0 0 0 0 0 0
0 0 0 0 0 0 0 0 0 0 0 0 0 0 0 0 0 0 0 0 0 0 0 0 0 0 0 0 0 0 0 0 0 0 0 0 0 0 0 0 0 0 0
0 0 0 0 0 0 0 0 0 0 0 0 0 0 0 0 0 0 0 0 0 0 0 0 0 0 0 0 0 0 0 0 0 0 0 0 0 0 0 0 0 0 0
0 0 0 0 0 0 0 0 0 0 0 0 0 0 0 0 0 0 0 0 0 0 0 0 0 0 0 0 0 0 0 0 0 0 0 0 0 0 0 0 0 0 0
0 0 0 0 0 0 0 0 0 0 0 0 0 0 0 0 0 0 0 0 0 0 0 0 0 0 0 0 0 0 0 0 0 0 0 0 0 0 0 0 0 0 0
0 0 0 0 0 0 0 0 0 0 0 1 1 0 0 0 0 0 0 0 0 0 0 0 0 0 0 0 0 0 0 0 0 0 0 0 0 0 0 0 0 0 0
0 0 0 0 0 0 0 0 0 0 0 1 1 1 1 1 1 0 0 0 0 0 0 0 0 0 0 0 0 0 0 0 0 0 0 0 0 0 0 0 0 0 0
0 0 0 0 0 0 0 0 0 0 0 1 1 2 2 2 2 1 0 0 0 0 0 0 0 0 0 0 0 0 0 0 0 0 0 0 0 0 0 0 0 0 0
0 0 0 1 0 0 0 0 1 1 1 1 1 2 2 3 3 1 1 1 0 0 0 0 0 0 0 0 0 0 0 0 0 0 0 0 0 0 0 0 0 0 0
0 0 0 0 0 1 1 1 2 2 2 3 3 2 2 2 2 2 2 2 1 0 0 0 0 0 0 0 0 0 0 0 0 0 0 0 0 0 0 0 0 0 0
0 0 0 0 1 2 2 2 3 3 3 3 3 3 2 1 1 1 1 2 2 1 1 1 0 0 0 0 0 0 0 0 0 0 0 0 0 0 0 0 0 0 0
0 0 0 0 1 2 2 2 2 3 3 2 2 3 2 1 0 0 0 1 2 2 2 2 1 0 0 0 0 0 0 0 0 0 0 0 0 0 0 0 0 0 0
0 0 0 0 0 1 1 1 1 3 3 2 1 2 1 0 0 0 0 0 1 3 3 3 2 0 0 0 0 0 0 0 0 0 0 0 0 0 0 0 0 0 0
0 0 0 0 0 0 0 0 1 3 3 2 2 2 2 1 1 1 1 0 1 3 3 2 1 0 0 0 0 0 0 0 0 0 0 0 0 0 0 0 0 0 0
0 0 0 0 0 0 0 0 1 1 2 2 2 4 5 5 4 4 2 0 0 1 1 1 0 0 0 0 0 0 0 0 0 0 0 0 0 0 0 0 0 0 0
0 0 0 0 0 0 0 0 0 0 0 1 2 4 8 8 7 6 3 1 0 0 0 0 0 0 0 0 0 0 0 0 0 0 0 0 0 0 0 0 0 0 0
0 0 0 0 0 0 0 0 0 0 1 2 2 4 7 8 7 6 4 2 1 2 1 0 0 0 0 0 0 0 0 0 0 0 0 0 0 0 0 0 0 0 0
0 0 0 0 0 0 0 0 0 0 1 2 2 3 4 6 6 4 3 4 3 3 2 0 0 0 0 0 0 0 0 0 0 0 0 0 0 0 0 0 0 0 0
0 0 0 0 0 0 0 0 0 0 1 1 1 2 3 4 4 3 3 5 6 4 2 1 0 0 0 0 0 0 0 0 0 0 0 0 0 0 0 0 0 0 0
0 0 0 0 0 0 0 0 0 0 0 1 2 3 3 3 3 3 4 6 8 7 3 1 0 0 0 0 0 0 0 0 0 0 0 0 0 0 0 0 0 0 0
0 0 0 0 0 0 0 0 0 0 0 1 2 3 3 3 3 3 4 6 9 9 5 2 0 0 0 0 0 0 0 0 0 0 0 0 0 0 0 0 0 0 0
0 0 0 0 0 0 0 0 0 0 0 0 1 1 2 2 3 3 4 5 8 10 7 3 0 0 0 0 0 0 0 0 0 0 0 0 0 0 0 0 0 0 0
0 0 0 0 0 0 0 0 0 0 0 0 0 0 1 1 1 3 5 5 6 8 7 3 1 0 0 0 0 0 0 0 0 0 0 0 0 0 0 0 0 0 0
0 0 0 0 0 0 0 0 0 0 0 0 0 0 0 0 0 2 4 5 5 5 4 3 2 1 0 0 0 0 0 0 0 0 0 0 0 0 0 0 0 0 0
0 0 0 0 0 0 0 0 0 0 0 0 0 0 0 0 0 1 2 4 4 3 3 3 3 2 1 0 0 0 0 0 0 0 0 0 0 0 0 0 0 0 0
Wind_Speed
4 5 10 11 11 11 11 10 10 9 9 8 8 8 8 8 8 8 8 7 7 7 6 6 7 7 7 7 7 7 7 7 7 7 7 7 7 7 7 7 7 5 8
8 7 11 11 11 11 10 10 9 9 8 8 8 8 7 7 7 7 6 6 6 6 6 6 6 6 6 6 6 6 6 7 6 5 5 6 6 7 8 8 7 4 7
11 8 9 11 11 10 10 9 9 8 8 8 7 7 7 6 6 6 6 5 5 5 5 5 5 5 5 5 4 5 5 6 6 5 4 2 3 6 7 7 7 7 7
11 8 8 11 11 10 10 9 9 8 8 7 7 6 6 6 6 5 5 5 5 5 5 4 4 5 4 4 3 3 4 5 5 4 2 2 2 5 6 6 7 6 6
10 8 9 12 11 10 10 9 8 8 7 7 7 6 6 6 6 5 5 5 4 4 4 4 3 4 3 2 2 2 4 5 5 4 2 2 2 5 7 7 6 6 6
9 8 9 13 12 11 10 9 8 8 7 7 7 7 6 6 6 5 5 4 4 4 4 4 3 3 2 2 0 1 3 4 4 2 2 2 1 5 7 7 6 6 5
8 7 9 13 12 11 10 9 9 8 8 8 7 7 7 7 6 5 5 5 5 4 4 4 4 3 3 2 1 1 2 3 2 1 2 2 2 6 7 6 6 6 5
7 6 6 11 12 11 10 10 9 9 9 9 8 8 7 7 7 7 6 5 5 5 5 4 4 4 4 3 3 2 2 2 3 2 2 2 4 6 6 6 6 5 5
4 3 2 3 6 9 10 11 11 11 11 10 10 9 9 8 8 8 8 7 7 6 6 6 6 5 5 5 4 3 2 2 2 1 3 2 5 7 7 7 6 5 5
4 3 1 0 1 2 5 9 11 12 12 12 11 11 10 10 10 10 9 9 9 8 8 7 7 7 7 6 6 5 2 2 1 1 2 3 7 7 7 7 6 5 5
4 3 2 1 1 2 4 6 8 10 11 11 10 12 10 5 5 6 9 11 11 11 10 9 9 8 8 7 7 6 2 1 1 2 2 6 8 8 8 7 6 5 5
5 4 3 2 2 2 3 3 3 4 4 5 4 6 5 4 5 7 9 13 14 13 12 11 10 9 7 3 5 5 1 2 2 2 3 9 9 9 8 8 7 6 6
4 5 4 3 3 2 2 2 2 2 3 4 5 6 5 4 4 5 3 6 8 10 6 6 6 4 4 3 3 3 3 2 2 3 4 9 10 10 9 8 8 7 7
5 5 5 4 3 3 2 2 2 2 2 3 5 6 5 3 4 4 4 4 4 3 4 4 3 4 5 5 5 4 4 3 3 3 4 10 10 10 10 9 9 8 7
5 5 5 4 4 3 3 3 2 2 3 3 3 4 5 4 4 4 4 4 5 4 4 4 4 5 5 6 6 6 5 6 5 5 4 10 10 10 10 10 9 9 8
6 7 6 6 4 4 3 3 3 3 3 3 3 5 5 4 4 4 4 4 5 5 5 5 6 5 5 5 6 6 7 7 6 6 5 7 10 10 10 10 10 9 9
6 6 7 6 5 5 4 4 3 3 3 3 3 4 5 5 5 4 4 5 5 5 6 5 5 4 4 4 4 5 5 6 7 7 6 4 5 8 9 10 10 10 10
6 7 7 8 7 6 5 5 4 4 3 3 3 3 4 5 5 4 4 4 4 3 4 4 4 3 3 3 2 2 3 5 7 7 6 5 4 4 7 9 10 10 10
6 6 7 7 7 7 6 5 4 4 4 3 3 3 4 4 5 4 5 4 4 3 3 4 3 3 3 2 2 2 3 4 5 7 6 6 5 5 4 7 10 10 10
6 7 7 7 7 7 5 4 4 4 4 3 3 3 4 4 5 5 4 5 5 4 4 4 3 3 2 2 2 1 1 2 4 5 6 6 5 5 5 5 5 6 10
7 7 7 7 7 6 4 4 4 4 4 4 3 4 4 4 4 4 4 5 5 5 6 6 4 3 2 2 2 1 2 1 2 3 4 4 5 5 5 5 4 4 4
7 7 7 7 7 6 4 4 3 4 4 4 3 4 4 4 4 4 5 5 5 5 5 6 5 3 2 3 3 3 1 1 1 1 2 4 5 4 5 6 4 4 4
7 7 7 7 8 7 6 4 4 3 3 3 4 3 4 4 4 4 4 4 5 6 6 7 6 6 4 3 3 4 4 4 2 1 1 2 4 4 4 4 5 5 5
7 7 7 7 7 7 6 5 5 4 4 4 4 4 5 4 4 4 3 4 4 4 5 6 6 5 5 4 2 2 2 3 4 2 0 0 2 3 4 4 5 5 5
7 7 7 7 7 8 7 6 5 4 4 4 4 5 4 4 4 4 3 3 4 4 5 6 5 6 5 5 4 3 2 1 2 3 2 1 1 1 2 3 3 4 5
6 6 7 7 7 8 8 7 6 6 6 5 5 5 4 3 3 3 3 3 3 3 4 5 5 7 6 6 5 4 4 4 3 3 3 2 2 1 1 1 2 3 4
Wind_Direction
160 171 151 144 139 136 135 135 134 131 128 126 123 118 114 110 106 103 100 99 94 91 89 86 84 82 79 72 66 62 58 57 59 61 64 68 68 69 75 92 92 94 101
155 161 149 144 141 138 138 137 137 136 134 132 130 127 124 120 117 113 109 107 102 99 96 91 90 87 84 76 67 60 54 49 49 58 68 68 70 75 81 95 99 104 107
146 150 148 146 143 141 140 140 140 140 138 137 136 135 133 130 128 127 122 115 111 109 108 103 102 98 91 81 72 59 47 39 38 58 80 79 75 82 87 98 102 104 110
145 148 151 150 147 146 145 144 144 145 145 145 145 145 143 141 140 138 135 128 123 122 121 118 112 107 100 89 70 51 38 31 39 59 83 91 81 88 93 99 104 106 110
149 150 155 156 155 154 152 152 151 151 152 153 153 155 155 153 153 154 150 145 137 132 131 129 124 120 114 104 69 35 28 29 49 68 87 92 85 99 96 94 103 108 114
151 154 161 161 162 162 162 161 162 163 165 167 169 169 169 168 166 166 167 162 155 150 149 149 149 144 139 138 105 6 15 26 54 79 110 119 114 108 100 98 107 114 117
151 160 168 167 169 170 172 174 176 178 180 184 185 185 185 185 183 181 181 178 174 172 170 168 172 172 177 194 222 297 355 11 74 104 144 144 133 116 107 102 101 104 113
148 159 172 176 177 180 183 187 190 192 195 197 198 198 198 197 196 195 195 193 190 188 188 189 192 196 207 220 233 259 318 10 68 95 150 162 149 129 122 113 110 116 114
102 129 160 185 187 192 196 199 202 203 206 207 208 207 205 206 207 207 206 206 204 201 203 206 207 212 221 232 241 252 282 35 81 149 171 172 156 141 133 127 123 122 120
66 65 70 97 218 223 219 217 216 215 214 214 214 213 213 214 215 216 214 214 212 211 213 215 216 221 229 237 246 254 270 60 87 183 164 177 163 150 141 137 132 128 125
43 34 32 32 264 244 239 232 228 226 225 223 220 219 216 215 219 224 224 220 218 218 218 220 223 230 235 243 252 258 263 142 143 167 175 181 169 159 152 148 143 140 137
18 14 9 345 317 288 264 257 245 238 236 230 223 223 214 206 215 226 231 229 225 222 221 223 228 235 241 246 259 265 228 180 176 185 192 184 174 165 159 155 152 149 148
7 8 1 351 340 317 295 289 265 251 242 235 228 225 219 212 215 226 227 235 230 224 220 224 229 230 235 238 241 234 213 196 194 194 199 187 176 171 165 163 162 158 153
0 352 346 346 346 332 313 298 273 259 249 236 227 223 215 215 215 219 220 214 210 204 201 212 221 229 237 241 241 237 211 193 196 190 200 191 179 175 170 166 165 163 159
356 345 336 330 337 334 326 311 305 279 264 253 245 229 214 211 217 219 224 212 205 197 199 209 219 227 235 239 236 226 209 197 194 185 192 193 182 178 174 171 170 168 165
355 346 339 334 340 334 323 308 294 281 271 259 243 238 225 212 212 210 218 214 210 205 204 206 212 219 227 230 231 223 207 193 191 185 188 192 186 182 180 177 175 174 171
351 348 345 341 346 334 321 310 307 288 283 270 257 249 233 218 215 208 207 214 214 211 210 207 211 218 228 226 224 218 195 185 179 184 185 184 185 186 184 182 179 178 176
354 348 343 345 340 328 318 308 301 295 287 277 272 265 246 226 218 214 209 209 201 200 206 204 198 196 215 208 207 199 177 173 174 179 180 181 181 183 188 188 182 181 182
353 346 341 336 333 326 319 310 304 298 288 282 280 272 262 247 226 212 215 212 191 190 203 210 197 186 188 191 199 184 165 165 174 178 180 184 186 183 180 190 184 182 184
349 346 341 338 334 328 323 319 314 309 297 288 278 270 264 255 241 221 221 212 191 187 199 198 189 186 180 178 191 172 159 165 166 175 186 184 188 190 184 184 182 191 190
350 348 343 341 336 335 328 324 316 312 303 296 285 276 269 260 247 230 230 216 202 198 200 193 183 186 185 147 116 62 11 32 165 178 182 172 185 189 183 187 186 184 193
345 343 341 338 331 328 317 301 283 287 286 282 287 289 275 267 254 244 226 216 208 203 201 199 183 173 181 159 146 125 90 348 331 191 174 174 179 180 183 192 191 190 190
344 339 338 330 329 326 323 317 316 312 307 311 309 299 288 278 264 251 233 219 211 202 204 204 190 177 177 178 160 150 159 197 218 312 191 171 165 167 183 188 194 194 194
333 332 330 329 328 328 329 330 328 322 307 292 289 285 291 284 273 257 238 223 215 207 206 207 194 183 167 172 174 181 168 157 150 167 316 137 159 170 176 183 193 196 193
331 335 333 332 332 333 334 331 326 321 305 300 303 301 299 291 276 266 249 229 220 213 212 210 197 186 178 175 171 163 155 123 124 140 166 169 117 171 169 173 185 192 194
334 336 336 337 333 335 338 339 337 331 327 331 328 319 313 304 288 279 260 237 223 214 211 211 202 196 192 184 180 170 162 161 169 152 150 162 171 207 160 169 178 190 193